Location: Melbourne
(37.8170°S, 144.9670°E)
Time: 12:24:56
(UTC+11:00)

Transit 2A - All Passes

Search period start: 02 April 2015 00:00
Search period end: 11 April 2015 23:00
Orbit: 592 x 969 km, 66.7° (Epoch: 01 April)

Date Brightness Start Highest point End Pass type
(mag) Time Alt. Az. Time Alt. Az. Time Alt. Az.
02 Apr - 00:22:19 10° NE 00:24:16 13° ENE 00:26:24 10° E night (unlit)
02 Apr - 02:02:27 10° NW 02:07:06 57° WSW 02:11:29 10° SSE night (unlit)
02 Apr - 10:49:53 10° SSW 10:54:29 70° ESE 10:59:29 10° NE daylight
02 Apr - 12:35:37 10° W 12:37:19 11° WNW 12:38:46 10° NW daylight
03 Apr - 01:28:35 10° NNW 01:33:20 89° SW 01:37:47 10° SSE night (unlit)
03 Apr - 03:16:30 10° SW 03:17:11 10° SW 03:17:38 10° SW night (unlit)
03 Apr - 10:16:16 10° SSW 10:20:41 45° ESE 10:25:29 10° NE daylight
03 Apr - 12:00:20 10° WSW 12:03:39 18° WNW 12:06:58 10° NNW daylight
04 Apr - 00:54:57 10° NNW 00:59:36 57° ENE 01:03:58 10° SE night (unlit)
04 Apr - 02:40:25 10° W 02:43:08 15° SW 02:45:39 10° SSW night (unlit)
04 Apr - 09:42:46 10° S 09:46:49 30° SE 09:51:13 10° ENE daylight
04 Apr - 11:25:55 10° SW 11:29:57 28° WNW 11:34:13 10° NNW daylight
05 Apr - 00:21:36 10° N 00:25:53 36° ENE 00:29:59 10° SE night (unlit)
05 Apr - 02:05:32 10° WNW 02:09:09 22° SW 02:12:34 10° S night (unlit)
05 Apr - 08:09:27 10° S 08:12:55 21° SE 08:16:41 10° ENE daylight
05 Apr - 09:51:49 10° SW 09:56:15 43° WNW 10:01:03 10° N daylight
05 Apr - 22:48:33 10° NNE 22:52:12 23° ENE 22:55:46 10° ESE night (unlit)
06 Apr - 00:31:04 10° WNW 00:35:15 32° SW 00:39:12 10° S night (unlit)
06 Apr - 07:36:24 10° SSE 07:38:55 15° SE 07:41:43 10° E daylight
06 Apr - 09:17:53 10° SSW 09:22:32 67° WNW 09:27:36 10° NNE daylight
06 Apr - 22:16:05 10° NE 22:18:31 15° ENE 22:21:06 10° ESE night (unlit)
06 Apr - 23:56:53 10° NW 00:01:24 49° WSW 00:05:41 10° SSE night (unlit)
07 Apr - 07:04:43 10° SE 07:04:51 10° SE 07:05:15 10° SE daylight
07 Apr - 08:44:06 10° SSW 08:48:47 80° ESE 08:53:53 10° NNE daylight
07 Apr - 23:22:56 10° NNW 23:27:36 78° WSW 23:32:02 10° SSE night (unlit)
08 Apr - 08:10:27 10° SSW 08:15:00 52° ESE 08:19:57 10° NE daylight
08 Apr - 09:54:52 10° WSW 09:57:56 16° WNW 10:00:55 10° NW daylight
08 Apr - 22:49:13 10° NNW 22:53:52 66° ENE 22:58:15 10° SE night (unlit)
09 Apr - 00:35:13 10° WSW 00:37:29 13° SW 00:39:33 10° SSW night (unlit)
09 Apr - 07:36:55 10° S 07:41:09 34° SE 07:45:45 10° ENE daylight
09 Apr - 09:20:18 10° SW 09:24:14 25° WNW 09:28:20 10° NNW daylight
09 Apr - 22:15:46 10° N 22:20:09 41° ENE 22:24:19 10° SE night (unlit)
10 Apr - 00:00:09 10° W 00:03:29 19° SW 00:06:38 10° S night (unlit)
10 Apr - 07:03:31 10° S 07:07:15 24° SE 07:11:18 10° ENE daylight
10 Apr - 08:46:07 10° SW 08:50:32 38° WNW 08:55:16 10° N daylight
10 Apr - 21:42:37 10° NNE 21:46:27 26° ENE 21:50:10 10° SE night (unlit)
10 Apr - 23:25:34 10° WNW 23:29:32 28° SW 23:33:20 10° S night (unlit)
11 Apr - 06:30:20 10° S 06:33:16 17° SE 06:36:30 10° E daylight
11 Apr - 08:12:09 10° SW 08:16:48 59° WNW 08:21:53 10° NNE daylight
11 Apr - 21:09:56 10° NNE 21:12:46 17° ENE 21:15:39 10° ESE night (unlit)
11 Apr - 22:51:17 10° NW 22:55:41 43° WSW 22:59:51 10° SSE night (unlit)
